9M4GHZ-13 Weather Reports


Display with metric or nautical units.
time (UTC)temp
F
wind
direction
speed
MPH
gust
MPH
rain 1hr
in
rain 24hr
in
rain mn
in
humidity
%
barometer
mb
20260504231005 77 112 0.0 0.0 0.00 0.00 0.00 91 1009.7
20260504230005 77 157 1.0 2.0 0.00 0.00 0.00 91 1009.7
20260504225005 77 157 0.0 1.0 0.00 0.00 0.00 92 1009.7
20260504224004 77 157 0.0 1.0 0.00 0.00 0.00 93 1009.6
20260504223005 77 157 3.0 3.0 0.00 0.00 0.00 93 1009.2
20260504222004 77 157 1.0 2.0 0.00 0.00 0.00 93 1009.3
20260504221005 77 180 1.0 2.0 0.00 0.00 0.00 92 1009.0
20260504220006 77 180 1.0 2.0 0.00 0.00 0.00 92 1008.9
20260504215003 77 135 0.0 1.0 0.00 0.00 0.00 93 1008.9
20260504214004 77 135 0.0 1.0 0.00 0.00 0.00 93 1008.6
20260504213005 77 135 0.0 1.0 0.00 0.00 0.00 92 1008.5
20260504212005 77 112 0.0 2.0 0.00 0.00 0.00 92 1008.3
20260504211005 76 135 0.0 2.0 0.00 0.00 0.00 93 1008.4
20260504210004 76 112 1.0 2.0 0.00 0.00 0.00 93 1008.3
20260504205004 76 112 1.0 1.0 0.00 0.00 0.00 93 1008.3
20260504204005 76 135 1.0 2.0 0.00 0.00 0.00 93 1008.6
20260504203005 76 135 2.0 3.0 0.00 0.00 0.00 93 1008.7
20260504202004 76 135 3.0 4.0 0.00 0.00 0.00 94 1008.9
20260504201005 76 112 0.0 1.0 0.00 0.00 0.00 94 1008.8
20260504195003 76 135 1.0 2.0 0.00 0.00 0.00 95 1008.8
20260504194005 76 112 1.0 3.0 0.00 0.00 0.00 95 1009.2
20260504193006 75 90 3.0 4.0 0.00 0.00 0.00 96 1009.2
20260504192003 75 90 2.0 2.0 0.00 0.00 0.00 96 1009.4
20260504191005 76 90 1.0 2.0 0.00 0.00 0.00 96 1009.5
20260504190004 76 67 0.0 1.0 0.00 0.00 0.00 96 1009.5
20260504185004 76 90 1.0 2.0 0.00 0.00 0.00 96 1009.4
20260504184005 76 90 2.0 2.0 0.00 0.00 0.00 96 1009.5
20260504183005 76 67 1.0 2.0 0.00 0.00 0.00 96 1009.6
20260504182003 76 67 1.0 2.0 0.00 0.00 0.00 95 1009.7
20260504181004 77 45 1.0 2.0 0.00 0.00 0.00 93 1009.8
20260504180005 77 135 0.0 1.0 0.00 0.00 0.00 92 1009.5
20260504175004 77 180 0.0 1.0 0.00 0.00 0.00 92 1009.6
20260504174005 77 180 2.0 2.0 0.00 0.00 0.00 92 1009.6
20260504173005 77 157 1.0 2.0 0.00 0.00 0.00 92 1009.9
20260504172003 77 135 0.0 1.0 0.00 0.00 0.00 92 1010.1
20260504171005 77 202 0.0 1.0 0.00 0.00 0.00 92 1010.4
20260504151005 78 135 0.0 2.0 0.00 0.00 0.00 87 1010.4
20260504141005 78 135 2.0 3.0 0.00 0.00 0.00 86 1010.2
20260504082004 88 337 4.0 6.0 0.00 0.00 0.00 70 1006.7
20260504081004 89 315 6.0 9.0 0.00 0.00 0.00 69 1006.5
20260504050005 82 247 1.0 2.0 0.00 0.00 0.00 80 1009.3
20260504045004 82 135 1.0 1.0 0.00 0.00 0.00 81 1009.5
20260504044004 82 157 1.0 3.0 0.00 0.00 0.00 82 1009.5
20260504043005 83 157 2.0 3.0 0.00 0.00 0.00 77 1009.9
20260504042004 82 22 0.0 1.0 0.00 0.00 0.00 82 1010.2
20260504041005 85 22 1.0 2.0 0.00 0.00 0.00 83 1010.3
20260504040005 86 315 3.0 4.0 0.00 0.00 0.00 76 1010.2
20260504035004 87 315 7.0 10.0 0.00 0.00 0.00 71 1010.2
20260504034005 88 292 7.0 9.0 0.00 0.00 0.00 69 1010.3
20260504033005 88 292 3.0 6.0 0.00 0.00 0.00 70 1010.2
20260504032004 89 292 2.0 3.0 0.00 0.00 0.00 68 1010.4
20260504031004 88 157 1.0 2.0 0.00 0.00 0.00 69 1010.4
20260504030007 89 180 1.0 3.0 0.00 0.00 0.00 69 1010.6
20260504025003 87 202 3.0 6.0 0.00 0.00 0.00 73 1010.9
20260504024005 86 157 5.0 6.0 0.00 0.00 0.00 75 1010.9
20260504023005 86 157 4.0 6.0 0.00 0.00 0.00 74 1011.0
20260504022004 86 135 4.0 8.0 0.00 0.00 0.00 76 1011.1
20260504021005 86 157 3.0 6.0 0.00 0.00 0.00 76 1011.2
20260504020004 86 202 3.0 4.0 0.00 0.00 0.00 76 1011.2
20260504015003 86 247 3.0 4.0 0.00 0.00 0.00 77 1011.0
20260504014005 85 247 3.0 4.0 0.00 0.00 0.00 78 1011.1
20260504013005 84 180 4.0 8.0 0.00 0.00 0.00 78 1010.9
20260504012005 85 135 3.0 3.0 0.00 0.00 0.00 79 1011.0
20260504011005 84 247 4.0 6.0 0.00 0.00 0.00 81 1011.0
20260504010004 83 225 1.0 2.0 0.00 0.00 0.00 82 1010.8
20260504005004 84 202 3.0 6.0 0.00 0.00 0.00 82 1010.7
20260504004005 84 202 2.0 4.0 0.00 0.00 0.00 81 1010.7
20260504003005 83 180 3.0 6.0 0.00 0.00 0.00 83 1010.4
20260504002004 83 157 1.0 3.0 0.00 0.00 0.00 84 1010.1
20260504001004 82 157 0.0 1.0 0.00 0.00 0.00 85 1009.8
20260504000006 82 112 0.0 0.0 0.00 0.00 0.00 86 1009.7
20260503235003 80 135 0.0 1.0 0.00 0.00 0.00 90 1009.2
20260503234005 79 90 0.0 1.0 0.00 0.00 0.00 93 1009.0
20260503233005 79 112 2.0 2.0 0.00 0.00 0.00 93 1008.9
20260503232003 78 90 0.0 1.0 0.00 0.00 0.00 94 1008.9